TimeAKDT,TemperatureF,Dew PointF,Humidity,Sea Level PressureIn,VisibilityMPH,Wind Direction,Wind SpeedMPH,Gust SpeedMPH,PrecipitationIn,Events,Conditions,WindDirDegrees,DateUTC
12:16 AM,44.6,33.8,66,29.25,10.0,East,12.7,-,N/A,,Clear,90,2011-10-06 08:16:00
12:36 AM,44.6,33.8,66,29.26,10.0,East,8.1,-,N/A,,Scattered Clouds,90,2011-10-06 08:36:00
12:56 AM,42.8,33.8,70,29.26,10.0,East,9.2,-,N/A,,Scattered Clouds,100,2011-10-06 08:56:00
1:16 AM,44.6,33.8,66,29.26,10.0,East,9.2,-,N/A,,Mostly Cloudy,90,2011-10-06 09:16:00
1:36 AM,44.6,35.6,71,29.27,10.0,East,11.5,17.3,N/A,,Overcast,100,2011-10-06 09:36:00
1:56 AM,44.6,35.6,71,29.27,10.0,East,9.2,-,N/A,,Overcast,100,2011-10-06 09:56:00
2:16 AM,44.6,35.6,71,29.27,10.0,East,8.1,-,N/A,,Overcast,100,2011-10-06 10:16:00
2:36 AM,44.6,37.4,76,29.27,10.0,Calm,Calm,-,N/A,,Overcast,0,2011-10-06 10:36:00
2:56 AM,42.8,37.4,81,29.27,10.0,Calm,Calm,-,N/A,,Overcast,0,2011-10-06 10:56:00
3:16 AM,42.8,37.4,81,29.27,10.0,Calm,Calm,-,N/A,,Overcast,0,2011-10-06 11:16:00
3:36 AM,41.0,37.4,87,29.27,10.0,Calm,Calm,-,N/A,,Overcast,0,2011-10-06 11:36:00
3:56 AM,41.0,37.4,87,29.27,10.0,Calm,Calm,-,N/A,,Overcast,0,2011-10-06 11:56:00
4:16 AM,41.0,37.4,87,29.27,10.0,Calm,Calm,-,N/A,,Overcast,0,2011-10-06 12:16:00
4:36 AM,41.0,37.4,87,29.27,10.0,Calm,Calm,-,N/A,,Overcast,0,2011-10-06 12:36:00
4:56 AM,41.0,39.2,93,29.27,10.0,Calm,Calm,-,N/A,,Overcast,0,2011-10-06 12:56:00
5:16 AM,39.2,37.4,93,29.28,10.0,Calm,Calm,-,N/A,,Overcast,0,2011-10-06 13:16:00
5:36 AM,39.2,37.4,93,29.28,10.0,Calm,Calm,-,N/A,,Overcast,0,2011-10-06 13:36:00
5:56 AM,39.2,37.4,93,29.28,9.0,Calm,Calm,-,N/A,,Overcast,0,2011-10-06 13:56:00
6:16 AM,39.2,37.4,93,29.28,10.0,Calm,Calm,-,N/A,,Mostly Cloudy,0,2011-10-06 14:16:00
6:36 AM,39.2,37.4,93,29.29,10.0,Calm,Calm,-,N/A,,Mostly Cloudy,0,2011-10-06 14:36:00
6:56 AM,37.4,35.6,93,29.29,10.0,Calm,Calm,-,N/A,,Mostly Cloudy,0,2011-10-06 14:56:00
7:16 AM,37.4,35.6,93,29.29,10.0,Calm,Calm,-,N/A,,Partly Cloudy,0,2011-10-06 15:16:00
7:36 AM,37.4,35.6,93,29.29,9.0,Calm,Calm,-,N/A,,Clear,0,2011-10-06 15:36:00
7:56 AM,35.6,35.6,100,29.29,10.0,Calm,Calm,-,N/A,,Clear,0,2011-10-06 15:56:00
8:16 AM,37.4,35.6,93,29.30,10.0,Calm,Calm,-,N/A,,Clear,0,2011-10-06 16:16:00
8:36 AM,37.4,35.6,93,29.30,10.0,Calm,Calm,-,N/A,,Mostly Cloudy,0,2011-10-06 16:36:00
8:56 AM,35.6,35.6,100,29.30,10.0,Calm,Calm,-,N/A,,Scattered Clouds,0,2011-10-06 16:56:00
9:16 AM,35.6,35.6,100,29.30,10.0,Calm,Calm,-,N/A,,Mostly Cloudy,0,2011-10-06 17:16:00
9:36 AM,35.6,35.6,100,29.30,10.0,Calm,Calm,-,N/A,,Overcast,0,2011-10-06 17:36:00
9:56 AM,37.4,35.6,93,29.30,10.0,Calm,Calm,-,N/A,,Overcast,0,2011-10-06 17:56:00
10:16 AM,37.4,35.6,93,29.31,10.0,Calm,Calm,-,N/A,,Scattered Clouds,0,2011-10-06 18:16:00
10:36 AM,39.2,37.4,93,29.31,10.0,Calm,Calm,-,N/A,,Scattered Clouds,0,2011-10-06 18:36:00
10:56 AM,41.0,37.4,87,29.31,10.0,Calm,Calm,-,N/A,,Overcast,0,2011-10-06 18:56:00
11:16 AM,42.8,37.4,81,29.32,10.0,Calm,Calm,-,N/A,,Overcast,0,2011-10-06 19:16:00
11:36 AM,42.8,37.4,81,29.32,10.0,NNE,3.5,-,N/A,,Mostly Cloudy,30,2011-10-06 19:36:00
11:56 AM,44.6,39.2,81,29.33,10.0,Calm,Calm,-,N/A,,Mostly Cloudy,0,2011-10-06 19:56:00
12:16 PM,44.6,39.2,81,29.33,10.0,NNE,5.8,-,N/A,,Overcast,30,2011-10-06 20:16:00
12:36 PM,46.4,39.2,76,29.33,10.0,NNE,5.8,-,N/A,,Overcast,30,2011-10-06 20:36:00
12:56 PM,46.4,39.2,76,29.34,10.0,NE,8.1,-,N/A,,Overcast,50,2011-10-06 20:56:00
1:16 PM,46.4,39.2,76,29.34,10.0,ENE,10.4,-,N/A,,Overcast,60,2011-10-06 21:16:00
1:36 PM,46.4,39.2,76,29.34,10.0,NE,6.9,-,N/A,,Overcast,40,2011-10-06 21:36:00
1:56 PM,46.4,39.2,76,29.35,10.0,NNE,4.6,-,N/A,,Overcast,30,2011-10-06 21:56:00
2:16 PM,46.4,41.0,81,29.35,10.0,NNE,4.6,-,N/A,,Overcast,20,2011-10-06 22:16:00
2:36 PM,46.4,41.0,81,29.35,10.0,NNE,4.6,-,N/A,,Overcast,20,2011-10-06 22:36:00
2:56 PM,46.4,41.0,81,29.36,10.0,NNE,4.6,-,N/A,,Overcast,20,2011-10-06 22:56:00
3:16 PM,46.4,41.0,81,29.36,10.0,NNE,3.5,-,N/A,,Overcast,20,2011-10-06 23:16:00
3:36 PM,46.4,42.8,87,29.36,10.0,North,8.1,-,N/A,,Overcast,10,2011-10-06 23:36:00
3:56 PM,46.4,41.0,81,29.36,10.0,North,5.8,-,N/A,,Overcast,10,2011-10-06 23:56:00
4:16 PM,46.4,41.0,81,29.36,10.0,North,6.9,-,N/A,,Overcast,10,2011-10-07 00:16:00
4:36 PM,46.4,41.0,81,29.37,10.0,North,6.9,-,N/A,,Overcast,10,2011-10-07 00:36:00
4:56 PM,48.2,41.0,76,29.38,10.0,NE,9.2,-,N/A,,Overcast,40,2011-10-07 00:56:00
5:16 PM,48.2,39.2,71,29.38,10.0,NNE,5.8,-,N/A,,Overcast,20,2011-10-07 01:16:00
5:36 PM,46.4,41.0,81,29.39,10.0,NNE,9.2,-,N/A,,Overcast,30,2011-10-07 01:36:00
5:56 PM,46.4,39.2,76,29.39,10.0,NNE,8.1,-,N/A,,Overcast,30,2011-10-07 01:56:00
6:16 PM,46.4,39.2,76,29.40,10.0,NE,8.1,-,N/A,,Overcast,40,2011-10-07 02:16:00
6:36 PM,46.4,39.2,76,29.40,10.0,NNE,4.6,-,N/A,,Overcast,30,2011-10-07 02:36:00
6:56 PM,44.6,39.2,81,29.41,10.0,NE,6.9,-,N/A,,Overcast,40,2011-10-07 02:56:00
7:16 PM,44.6,39.2,81,29.42,10.0,ENE,4.6,-,N/A,,Overcast,60,2011-10-07 03:16:00
7:36 PM,44.6,39.2,81,29.42,10.0,NE,4.6,-,N/A,,Overcast,50,2011-10-07 03:36:00
7:56 PM,44.6,39.2,81,29.43,10.0,Calm,Calm,-,N/A,,Overcast,0,2011-10-07 03:56:00
8:16 PM,44.6,39.2,81,29.44,10.0,Calm,Calm,-,N/A,,Overcast,0,2011-10-07 04:16:00
8:36 PM,44.6,39.2,81,29.44,10.0,Calm,Calm,-,N/A,,Overcast,0,2011-10-07 04:36:00
8:56 PM,44.6,39.2,81,29.45,10.0,Calm,Calm,-,N/A,,Overcast,0,2011-10-07 04:56:00
9:16 PM,44.6,39.2,81,29.46,10.0,Calm,Calm,-,N/A,,Overcast,0,2011-10-07 05:16:00
9:36 PM,44.6,39.2,81,29.46,10.0,Calm,Calm,-,N/A,,Overcast,0,2011-10-07 05:36:00
9:56 PM,42.8,39.2,87,29.47,10.0,Calm,Calm,-,N/A,,Overcast,0,2011-10-07 05:56:00
10:16 PM,42.8,39.2,87,29.47,10.0,Calm,Calm,-,N/A,,Overcast,0,2011-10-07 06:16:00
10:36 PM,42.8,39.2,87,29.48,10.0,Calm,Calm,-,N/A,,Overcast,0,2011-10-07 06:36:00
10:56 PM,42.8,39.2,87,29.49,10.0,Calm,Calm,-,N/A,,Overcast,0,2011-10-07 06:56:00
11:16 PM,42.8,39.2,87,29.50,10.0,Calm,Calm,-,N/A,,Overcast,0,2011-10-07 07:16:00
11:36 PM,42.8,39.2,87,29.51,10.0,Calm,Calm,-,N/A,,Overcast,0,2011-10-07 07:36:00
11:56 PM,42.8,39.2,87,29.51,10.0,Calm,Calm,-,N/A,,Overcast,0,2011-10-07 07:56:00